Погода в Михаль

Россия / Калужская область     55°11′42″N   35°27′01″E
темп.,
°C
ветер,
м/с
пор.,
м/с
влажн.,
%
обл.,
%
осадки,
мм/ч
давл.,
гПа
погр.,
м
20 января, чт
чт2000:00−5ююз41295100 0.1 1011383
03:00−4ююз41395100 0.1 1009493
06:00−3юз41295100 0.1 1007599
09:00−3ююз51195100 0.1 1005563
12:00−3ююз51395100 0.1 1004603
15:00−2ю61494100 0.1 1001770
18:00−3ю61494100 0.2 999850
21:00−3ю51395100 0.7 999817
21 января, пт
пт2100:00−3ююз51295100 1.0 999765
03:00−3ю41094100 1.1 999551
06:00−4ю41094100 0.1 998749
09:00−5ююв41095100 0.2 997461
12:00−3ююв3896100 0.3 996495
15:00−4ююз2689100 0.4 996436
18:00−12ююв229883 0.0 99716
21:00−13юв2410093 0.0 99852
22 января, сб
сб2200:00−13вюв2610098 0.0 99988
03:00−13в269898 0.1 999104
06:00−11всв269786 0.1 1000138
09:00−12всв259783 0.3 1003105
12:00−8в239493 0.2 1005174
15:00−5юв2392100 0.3 1007458
18:00−7юв149798 0.2 1011125
21:00−13вюв1110095 0.2 10149
23 января, вс
вс2300:00−15в21100100 0.1 101710
03:00−18всв22100100 0.1 101913
06:00−16всв23100100 0.1 102142
09:00−17св2310094 0.1 102453
12:00−10всв239498 0.1 1025182
15:00−9св249593 0.1 1027261
18:00−15св2310096 0.0 103042
21:00−16св24100100 0.1 103258
24 января, пн
пн2400:00−17св25100100 0.0 103369
03:00−18св25100100 0.1 103464
06:00−18св26100100 0.0 103382
09:00−17св28100100 0.1 1034126
12:00−11св369592 0.0 1032186
15:00−9св269324 0.0 1029229
18:00−14ссв249979 0.0 102949
21:00−13св149981 0.1 102968